Waarnemingen

Advertentie
Mijn weer
Inverbervie, Groot Brittannië (3088): temperatuur & dauwpunt: 17.09.2018 01:00:00 - 23.09.2018 01:00:00 (BST)Inverbervie, Groot Brittannië (3088): temperatuur -20cm & temperatuur -100cm: 17.09.2018 01:00:00 - 23.09.2018 01:00:00 (BST)Inverbervie, Groot Brittannië (3088): windsnelheid & windstoten: 17.09.2018 01:00:00 - 23.09.2018 01:00:00 (BST)Inverbervie, Groot Brittannië (3088): windrichting: 17.09.2018 01:00:00 - 23.09.2018 01:00:00 (BST)Inverbervie, Groot Brittannië (3088): luchtdruk: 17.09.2018 01:00:00 - 23.09.2018 01:00:00 (BST)Inverbervie, Groot Brittannië (3088): zicht: 17.09.2018 01:00:00 - 23.09.2018 01:00:00 (BST)Inverbervie, Groot Brittannië (3088): neerslag: 17.09.2018 01:00:00 - 23.09.2018 01:00:00 (BST)
Datum & Tijd tt [°C] td [°C] tt -20cm [°C] tt -100cm [°C] ff [km/u] ff [kn] fx [km/u] fx [kn] dd ppp [hPa] vv [km] rr [mm]
23.09.2018 01:00:00 6,1 3,0 - - 13 7 - - WNW 1015,3 50 0,0
23.09.2018 00:00:00 6,6 3,0 - - 9 5 - - W 1015,3 45 0,0
22.09.2018 23:00:00 6,6 3,0 - - 13 7 - - WNW 1014,9 45 0,0
22.09.2018 22:00:00 7,3 3,6 - - 9 5 - - WZW 1014,4 50 0,0
22.09.2018 21:00:00 8,1 3,7 - - 22 12 - - WNW 1013,6 45 0,0
22.09.2018 20:00:00 8,9 3,6 - - 18 10 - - NW 1013,2 50 0,0
22.09.2018 19:00:00 9,4 4,4 - - 15 8 - - NW 1012,7 30 0,0
22.09.2018 18:00:00 11,0 3,7 - - 18 10 - - NW 1012,0 40 0,0
22.09.2018 17:00:00 12,3 3,8 - - 24 13 - - NW 1011,6 50 0,0
22.09.2018 16:00:00 12,8 2,9 - - 18 10 - - WNW 1011,4 50 0,0
22.09.2018 15:00:00 14,6 3,7 - - 24 13 - - W 1010,9 24 0,0
22.09.2018 14:00:00 12,8 3,5 - - 18 10 - - W 1011,1 45 0,0
22.09.2018 13:00:00 13,7 4,7 - - 22 12 - - W 1010,3 35 0,0
22.09.2018 12:00:00 11,6 3,9 - - 26 14 46 25 WNW 1009,8 40 0,0
22.09.2018 11:00:00 10,9 3,7 - - 18 10 - - W 1009,9 40 0,0
22.09.2018 10:00:00 9,6 3,5 12,2 12,7 22 12 - - W 1009,1 50 0,0
22.09.2018 09:00:00 7,7 3,6 - - 31 17 50 27 W 1008,1 40 0,0
22.09.2018 08:00:00 6,3 3,4 - - 37 20 52 28 WZW 1007,5 45 0,0
22.09.2018 07:00:00 5,8 3,1 - - 31 17 50 27 ZW 1007,7 50 0,0
22.09.2018 06:00:00 5,7 3,5 - - 37 20 46 25 WZW 1007,5 45 0,0
22.09.2018 05:00:00 6,1 3,5 - - 28 15 - - W 1007,2 45 0,0
22.09.2018 04:00:00 5,6 3,4 - - 29 16 - - WZW 1007,2 40 0,0
22.09.2018 03:00:00 5,7 3,1 - - 31 17 - - WZW 1007,0 50 0,0
22.09.2018 02:00:00 6,5 3,5 - - 35 19 48 26 WZW 1006,5 45 0,0
22.09.2018 01:00:00 6,7 3,5 - - 34 18 46 25 WZW 1006,0 40 0,0
22.09.2018 00:00:00 7,0 3,8 - - 28 15 - - W 1005,6 50 0,0
21.09.2018 23:00:00 7,2 3,9 - - 28 15 - - W 1005,1 50 0,0
21.09.2018 22:00:00 6,9 2,9 - - 24 13 - - WZW 1005,0 40 0,0
21.09.2018 21:00:00 8,1 2,6 - - 26 14 - - W 1004,3 50 0,0
21.09.2018 20:00:00 8,5 2,3 - - 18 10 - - W 1003,5 50 0,0
21.09.2018 19:00:00 10,3 2,6 - - 26 14 - - WNW 1002,5 45 0,0
21.09.2018 18:00:00 11,3 4,3 - - 22 12 46 25 WNW 1001,7 50 0,0
21.09.2018 17:00:00 11,0 3,6 - - 34 18 61 33 WNW 1000,6 45 0,0
21.09.2018 16:00:00 10,2 3,9 - - 37 20 61 33 NW 999,0 35 0,0
21.09.2018 15:00:00 9,5 4,4 - - 37 20 55 30 WNW 997,7 29 0,0
21.09.2018 14:00:00 9,5 5,1 - - 35 19 55 30 WNW 996,4 30 0,0
21.09.2018 13:00:00 9,0 5,5 - - 28 15 52 28 WNW 995,0 30 0,0
21.09.2018 12:00:00 7,7 5,3 - - 37 20 65 35 WNW 993,1 45 0,6
21.09.2018 11:00:00 7,1 5,0 - - 52 28 70 38 WNW 991,4 10 0,0
21.09.2018 10:00:00 8,9 3,8 12,7 12,7 39 21 55 30 WNW 989,7 40 0,0
21.09.2018 09:00:00 8,4 3,1 - - 31 17 48 26 W 989,3 45 0,0
21.09.2018 08:00:00 7,8 4,1 - - 34 18 50 27 WNW 988,8 50 0,0
21.09.2018 07:00:00 7,1 4,6 - - 41 22 54 29 WNW 988,6 19 0,0
21.09.2018 06:00:00 6,9 4,9 - - 28 15 48 26 NW 988,9 45 0,4
21.09.2018 05:00:00 6,7 5,7 - - 29 16 46 25 WNW 988,9 17 0,2
21.09.2018 04:00:00 6,7 5,7 - - 24 13 - - NW 989,9 13 0,2
21.09.2018 03:00:00 7,0 5,9 - - 22 12 - - NNW 990,6 14 1,2
21.09.2018 02:00:00 7,7 5,9 - - 21 11 - - N 991,5 17 0,2
21.09.2018 01:00:00 8,6 5,3 - - 16 9 - - NNO 993,5 45 0,0
21.09.2018 00:00:00 8,5 6,6 - - 9 5 - - NNW 994,6 30 0,0
20.09.2018 23:00:00 8,8 6,4 - - 8 4 - - W 995,8 28 0,0
20.09.2018 22:00:00 8,8 6,1 - - 8 4 - - WNW 997,2 35 0,0
20.09.2018 21:00:00 9,5 6,2 - - 16 9 - - ZW 998,4 35 0,0
20.09.2018 20:00:00 9,6 6,2 - - 15 8 - - WZW 998,8 22 0,0
20.09.2018 19:00:00 10,5 7,0 - - 22 12 - - ZW 999,7 30 0,0
20.09.2018 18:00:00 10,7 6,9 - - 26 14 - - ZZW 1000,5 30 0,0
20.09.2018 17:00:00 11,2 6,2 - - 34 18 - - ZW 1001,0 30 0,0
20.09.2018 16:00:00 11,4 5,7 - - 34 18 57 31 ZZW 1001,8 35 0,0
20.09.2018 15:00:00 11,6 5,1 - - 39 21 52 28 ZW 1001,5 40 0,0
20.09.2018 14:00:00 12,2 4,9 - - 35 19 55 30 WZW 1001,4 40 0,0
20.09.2018 13:00:00 12,9 5,7 - - 41 22 72 39 WZW 1001,4 35 0,0
20.09.2018 12:00:00 12,0 5,6 - - 41 22 74 40 WZW 1001,6 35 0,0
20.09.2018 11:00:00 11,6 6,3 - - 48 26 78 42 WZW 1000,9 20 0,0
20.09.2018 10:00:00 10,4 6,3 13,0 12,9 42 23 72 39 WZW 1001,1 29 0,0
20.09.2018 09:00:00 9,4 6,2 - - 54 29 70 38 WZW 1000,7 30 0,0
20.09.2018 08:00:00 8,3 5,9 - - 48 26 65 35 WZW 1000,7 30 0,0
20.09.2018 07:00:00 7,9 5,5 - - 48 26 70 38 WZW 1000,6 30 0,0
20.09.2018 06:00:00 8,1 5,9 - - 54 29 76 41 WZW 1000,0 40 0,0
20.09.2018 05:00:00 7,8 5,2 - - 50 27 72 39 ZW 1000,0 50 0,0
20.09.2018 04:00:00 7,8 4,6 - - 55 30 76 41 WZW 999,0 35 0,0
20.09.2018 03:00:00 7,8 4,9 - - 52 28 83 45 WZW 998,9 45 0,0
20.09.2018 02:00:00 8,3 4,9 - - 65 35 91 49 WZW 997,5 45 0,0
20.09.2018 01:00:00 8,7 4,9 - - 54 29 76 41 WZW 997,9 30 0,0
20.09.2018 00:00:00 8,5 4,2 - - 48 26 70 38 WZW 997,9 27 0,0
19.09.2018 23:00:00 8,8 4,9 - - 52 28 83 45 WZW 997,6 27 0,0
19.09.2018 22:00:00 8,8 4,8 - - 65 35 91 49 WZW 997,0 35 0,0
19.09.2018 21:00:00 9,0 4,7 - - 68 37 94 51 WZW 995,7 45 0,0
19.09.2018 20:00:00 9,5 5,6 - - 63 34 91 49 WZW 994,9 40 0,0
19.09.2018 19:00:00 10,1 6,4 - - 61 33 89 48 WZW 993,8 50 0,0
19.09.2018 18:00:00 11,4 6,9 - - 72 39 107 58 WZW 991,8 50 0,0
19.09.2018 17:00:00 12,7 6,6 - - 72 39 109 59 WZW 989,0 50 0,0
19.09.2018 16:00:00 13,6 8,1 - - 87 47 122 66 ZW 985,5 22 0,0
19.09.2018 15:00:00 12,9 8,2 - - 94 51 124 67 ZZW 984,4 24 0,0
19.09.2018 14:00:00 13,4 7,6 - - 83 45 119 64 ZW 983,9 19 0,4
19.09.2018 13:00:00 14,0 12,3 - - 83 45 104 56 Z 983,5 8 0,0
19.09.2018 12:00:00 12,6 11,4 - - 61 33 89 48 ZZO 986,2 8 0,0
19.09.2018 11:00:00 12,3 11,5 - - 68 37 87 47 ZZO 989,5 8 2,4
19.09.2018 10:00:00 11,6 10,4 13,4 12,9 50 27 67 36 ZZO 993,4 6 0,2
19.09.2018 09:00:00 11,7 9,2 - - 39 21 63 34 Z 995,7 14 0,0
19.09.2018 08:00:00 11,2 8,1 - - 46 25 61 33 ZZW 996,4 15 0,0
19.09.2018 07:00:00 10,6 7,2 - - 35 19 50 27 ZW 997,5 19 0,0
19.09.2018 06:00:00 10,5 6,5 - - 35 19 61 33 WZW 997,6 24 0,0
19.09.2018 05:00:00 11,0 6,8 - - 44 24 68 37 ZW 997,7 24 0,0
19.09.2018 04:00:00 12,1 7,3 - - 59 32 80 43 ZW 997,1 28 0,0
19.09.2018 03:00:00 13,0 10,4 - - 46 25 61 33 ZZW 997,1 15 0,0
19.09.2018 02:00:00 12,5 10,6 - - 35 19 - - ZZW 997,0 14 0,0
19.09.2018 01:00:00 12,4 10,2 - - 34 18 55 30 ZZW 997,5 19 0,0
19.09.2018 00:00:00 12,4 11,5 - - 42 23 54 29 ZZW 997,2 13 0,0
18.09.2018 23:00:00 12,7 11,8 - - 37 20 50 27 ZZW 997,0 14 0,0
18.09.2018 22:00:00 12,3 11,9 - - 28 15 - - Z 997,1 13 0,0
18.09.2018 21:00:00 13,3 11,7 - - 34 18 - - ZZW 997,1 9 0,0
18.09.2018 20:00:00 13,5 10,7 - - 31 17 50 27 ZW 997,1 40 0,0
18.09.2018 19:00:00 14,7 11,4 - - 41 22 61 33 ZW 996,3 50 0,0
18.09.2018 18:00:00 16,0 10,7 - - 48 26 72 39 ZW 995,0 40 0,0
18.09.2018 17:00:00 16,8 12,1 - - 41 22 81 44 WZW 993,5 50 0,0
18.09.2018 16:00:00 15,7 14,7 - - 52 28 67 36 WZW 992,8 35 0,0
18.09.2018 15:00:00 13,5 13,5 - - 31 17 - - ZZW 993,2 0,5 0,0
18.09.2018 14:00:00 13,6 13,6 - - 29 16 - - ZZW 992,9 - 0,2
18.09.2018 13:00:00 13,4 13,4 - - 18 10 - - ZZW 992,8 - 0,0
18.09.2018 12:00:00 13,1 13,1 - - 13 7 - - ZZW 992,9 - 0,0
18.09.2018 11:00:00 12,8 12,8 - - 11 6 - - ZZW 993,4 - 0,2
18.09.2018 10:00:00 12,7 12,7 13,2 13,0 8 4 - - ZZW 993,6 - 0,2
18.09.2018 09:00:00 12,5 12,5 - - 9 5 - - Z 994,3 0,1 2,4
18.09.2018 08:00:00 12,6 12,4 - - 9 5 - - Z 994,7 2,5 1,2
18.09.2018 07:00:00 12,8 12,5 - - 11 6 - - Z 995,1 12 0,0
18.09.2018 06:00:00 12,9 12,2 - - 21 11 - - ZZO 995,5 11 0,0
18.09.2018 05:00:00 13,3 12,0 - - 21 11 - - Z 996,6 18 0,0
18.09.2018 04:00:00 14,1 11,8 - - 26 14 - - Z 996,9 26 0,0
18.09.2018 03:00:00 13,8 12,0 - - 28 15 - - Z 997,5 19 0,0
18.09.2018 02:00:00 13,9 12,0 - - 29 16 46 25 ZZW 997,8 20 0,0
18.09.2018 01:00:00 14,6 12,0 - - 29 16 - - ZZW 998,3 20 0,0
18.09.2018 00:00:00 13,7 12,8 - - 18 10 - - Z 998,9 11 0,0
17.09.2018 23:00:00 13,6 12,8 - - 21 11 - - Z 999,4 11 0,0
17.09.2018 22:00:00 13,5 12,6 - - 26 14 59 32 Z 999,8 9 0,0
17.09.2018 21:00:00 14,2 13,1 - - 48 26 57 31 Z 999,7 14 0,0
17.09.2018 20:00:00 13,4 13,0 - - 39 21 50 27 Z 1000,4 8 0,0
17.09.2018 19:00:00 12,7 12,3 - - 37 20 50 27 ZZO 1000,9 9 0,0
17.09.2018 18:00:00 12,2 11,6 - - 31 17 - - ZZO 1002,3 12 0,0
17.09.2018 17:00:00 12,6 11,3 - - 29 16 - - ZZO 1003,3 19 0,0
17.09.2018 16:00:00 13,2 11,7 - - 29 16 - - Z 1004,5 18 0,0
17.09.2018 15:00:00 13,1 11,3 - - 28 15 - - ZZW 1005,9 21 0,0
17.09.2018 14:00:00 12,4 10,2 - - 24 13 - - ZZW 1007,0 40 0,0
17.09.2018 13:00:00 12,3 10,2 - - 21 11 - - ZZW 1007,5 30 0,0
17.09.2018 12:00:00 12,6 10,1 - - 22 12 - - ZZW 1008,6 29 0,0
17.09.2018 11:00:00 11,6 9,6 - - 26 14 - - ZZW 1009,3 24 0,0
17.09.2018 10:00:00 11,2 9,3 13,2 13,0 18 10 - - ZW 1009,2 30 0,0
17.09.2018 09:00:00 11,2 9,6 - - 24 13 - - ZW 1009,4 29 0,0
17.09.2018 08:00:00 11,0 9,7 - - 24 13 - - ZW 1009,5 25 0,0
17.09.2018 07:00:00 10,7 9,4 - - 22 12 - - ZW 1009,5 24 0,0
17.09.2018 06:00:00 10,5 9,2 - - 31 17 - - ZW 1009,5 26 0,0
17.09.2018 05:00:00 10,7 9,2 - - 22 12 - - ZW 1010,1 22 0,0
17.09.2018 04:00:00 10,9 9,1 - - 31 17 48 26 ZW 1009,9 30 0,0
17.09.2018 03:00:00 11,2 9,5 - - 34 18 - - ZW 1010,3 23 0,0
17.09.2018 02:00:00 11,0 9,6 - - 26 14 - - ZZW 1010,3 17 0,0
17.09.2018 01:00:00 10,4 9,6 - - 18 10 - - ZZW 1010,8 13 -

tt = temperatuur
td = dauwpunt
tt -20cm = temperatuur -20cm
tt -100cm = temperatuur -100cm
ff = windsnelheid
fx = windstoten
dd = windrichting
ppp = luchtdruk
vv = zicht
rr = neerslag

Weerstations in de omgeving